Regional Weather Roundup
Issued by NWS

Home | Current Version | Previous Version | Graphics & Text | Print | Product List | Glossary On
Versions: 1 2 3 4 5 6 7 8 9 10 11 12 13 14 15 16 17 18 19 20 21 22 23 24 25 26 27 28 29 30 31 32 33 34 35 36 37 38 39 40 41 42 43 44 45 46 47 48 49 50
000
ASUS43 KMKX 200011
RWRWI

WISCONSIN REGIONAL WEATHER ROUNDUP
NATIONAL WEATHER SERVICE MILWAUKEE/SULLIVAN WI
700 PM CDT SAT AUG 19 2017

NOTE: "FAIR" INDICATES FEW OR NO CLOUDS BELOW 12,000 FEET WITH NO
SIGNIFICANT WEATHER AND/OR OBSTRUCTIONS TO VISIBILITY.

WIZ001-002-006>008-014>016-023>028-200100-
NORTHWEST WISCONSIN

CITY           SKY/WX    TMP DP  RH WIND       PRES   REMARKS
SUPERIOR ARPT    N/A     77  63  62 SW6       29.84S
6HR MIN TEMP:  77; 6HR MAX TEMP:  81;

ASHLAND        SUNNY     76  63  64 SW7       29.86F
6HR MIN TEMP:  76; 6HR MAX TEMP:  82;

HAYWARD        SUNNY     76  58  53 SW8       29.89F
6HR MIN TEMP:  76; 6HR MAX TEMP:  79;

SIREN          SUNNY     76  60  56 SW7       29.89S
6HR MIN TEMP:  76; 6HR MAX TEMP:  79;

CUMBERLAND     SUNNY     73  57  56 S6        29.91S
RICE LAKE      SUNNY     75  59  58 S5        29.92S
6HR MIN TEMP:  75; 6HR MAX TEMP:  78;

CHETEK         SUNNY     75  61  61 CALM      29.91S
6HR MIN TEMP:  75; 6HR MAX TEMP:  79;

LADYSMITH      SUNNY     75  62  64 S5        29.93S
6HR MIN TEMP:  75; 6HR MAX TEMP:  79;

EAU CLAIRE     SUNNY     76  59  55 SW5       29.90F
6HR MIN TEMP:  76; 6HR MAX TEMP:  79;

MENOMONIE      SUNNY     76  62  61 S5        29.90F
6HR MIN TEMP:  76; 6HR MAX TEMP:  80;

NEW RICHMOND   SUNNY     76  59  56 S7        29.90S
6HR MIN TEMP:  76; 6HR MAX TEMP:  79;

OSCEOLA        SUNNY     77  61  58 S7        29.91F
6HR MIN TEMP:  77; 6HR MAX TEMP:  80;

$$

WIZ003>005-009-010-017-018-200100-
NORTH CENTRAL WISCONSIN

CITY           SKY/WX    TMP DP  RH WIND       PRES   REMARKS
MANITOWISH WTR CLEAR     74  59  60 SW6       29.91S
6HR MIN TEMP:  73; 6HR MAX TEMP:  78;

ARBOR VITAE    CLEAR     77  62  59 W3        29.91S
6HR MIN TEMP:  77; 6HR MAX TEMP:  80;

WOODRUFF       CLEAR     77  62  59 W3        29.91S
6HR MIN TEMP:  77; 6HR MAX TEMP:  80;

RHINELANDER    CLEAR     74  62  66 W5        29.93S
6HR MIN TEMP:  74; 6HR MAX TEMP:  79;

EAGLE RIVER    CLEAR     73  56  55 CALM      29.91S
6HR MIN TEMP:  73; 6HR MAX TEMP:  78;

LAND O LAKES   CLEAR     73  56  54 CALM      29.93S
6HR MIN TEMP:  73; 6HR MAX TEMP:  78;

PHILLIPS       CLEAR     73  61  65 SW6       29.91F
6HR MIN TEMP:  73; 6HR MAX TEMP:  78;

TOMAHAWK         N/A     73  58  60 CALM      29.93S
6HR MIN TEMP:  73; 6HR MAX TEMP:  78;

MEDFORD        CLEAR     72  58  62 SW3       29.93F
6HR MIN TEMP:  72; 6HR MAX TEMP:  75;

MERRILL        CLEAR     75  61  60 W8        29.93S
$$

WIZ029-030-035-036-043>047-200100-
CENTRAL WISCONSIN

CITY           SKY/WX    TMP DP  RH WIND       PRES   REMARKS
WAUSAU         CLEAR     75  59  57 W6        29.91S
6HR MIN TEMP:  75; 6HR MAX TEMP:  80;

MOSINEE        PTCLDY    73  57  56 W5        29.95R
MARSHFIELD     CLEAR     74  56  53 W5        29.93S
6HR MIN TEMP:  74; 6HR MAX TEMP:  79;

STEVENS POINT  CLEAR     75  57  52 CALM      29.94S
6HR MIN TEMP:  75; 6HR MAX TEMP:  78;

WAUPACA        CLEAR     80  57  46 W5        29.92S HX  80
6HR MIN TEMP:  80; 6HR MAX TEMP:  83;

WAUTOMA        CLEAR     78  59  51 W5        29.93S
6HR MIN TEMP:  78; 6HR MAX TEMP:  83;

WISC RAPIDS    CLEAR     77  57  50 W3        29.94S
6HR MIN TEMP:  77; 6HR MAX TEMP:  82;

CAMP DOUGLAS   CLEAR     76  58  53 SW6       29.93S
6HR MIN TEMP:  76; 6HR MAX TEMP:  81;

$$

WIZ011>013-019>022-031-037>040-048>050-200100-
NORTHEAST WISCONSIN

CITY           SKY/WX    TMP DP  RH WIND       PRES   REMARKS
ANTIGO         CLEAR     72  59  63 W9        29.94R
6HR MIN TEMP:  72; 6HR MAX TEMP:  78;

SHAWANO        CLEAR     79  58  49 W3        29.90S HX  80
6HR MIN TEMP:  79; 6HR MAX TEMP:  83;

OCONTO         CLEAR     76  62  60 SW3       29.88S
6HR MIN TEMP:  76; 6HR MAX TEMP:  82;

STURGEON BAY   CLEAR     76  62  62 SW5       29.89S
6HR MIN TEMP:  76; 6HR MAX TEMP:  79;

GREEN BAY      CLEAR     76  64  66 SW5       29.90S
6HR MIN TEMP:  76; 6HR MAX TEMP:  81;

MANITOWOC      CLEAR     78  60  53 SW3       29.92S
6HR MIN TEMP:  78; 6HR MAX TEMP:  80;

APPLETON       PTCLDY    77  57  50 W3        29.91S
CLINTONVILLE   CLEAR     77  55  47 W3        29.91S
OSHKOSH        CLEAR     77  61  57 SW3       29.92S
6HR MIN TEMP:  77; 6HR MAX TEMP:  81;

$$

WIZ032>034-041-042-053>061-200100-
SOUTHWEST WISCONSIN

CITY           SKY/WX    TMP DP  RH WIND       PRES   REMARKS
LA CROSSE      SUNNY     81  60  48 S7        29.90F HX  82
6HR MIN TEMP:  79; 6HR MAX TEMP:  84;

SPARTA         CLEAR     76  60  58 CALM      29.93F
6HR MIN TEMP:  75; 6HR MAX TEMP:  79;

VIROQUA        CLEAR     75  62  63 S3        29.95S
6HR MIN TEMP:  74; 6HR MAX TEMP:  78;

BOSCOBEL       CLEAR     80  60  50 S5        29.92F HX  81
6HR MIN TEMP:  80; 6HR MAX TEMP:  85;

PRAIRIE DU CHI CLEAR     78  55  44 SE3       29.92S
6HR MIN TEMP:  76; 6HR MAX TEMP:  81;

PLATTEVILLE    CLEAR     76  64  65 S3        29.96S
6HR MIN TEMP:  75; 6HR MAX TEMP:  79;

$$

WIZ056-057-062-063-064-067-068-200100-
SOUTH CENTRAL WISCONSIN

CITY           SKY/WX    TMP DP  RH WIND       PRES   REMARKS
REEDSBURG      CLEAR     77  59  54 SW5       29.93S
6HR MIN TEMP:  77; 6HR MAX TEMP:  82;

BARABOO/DELLS  CLEAR     77  56  49 SW3       29.94S
6HR MIN TEMP:  77; 6HR MAX TEMP:  81;

LONE ROCK      CLEAR     79  60  52 SW5       29.93S HX  80
6HR MIN TEMP:  78; 6HR MAX TEMP:  82;

MINERAL POINT  CLEAR     77  63  61 S3        29.96S
MADISON        PTCLDY    79  58  48 W3        29.94S HX  80
6HR MIN TEMP:  76; 6HR MAX TEMP:  81;

MIDDLETON      CLEAR     79  61  53 SW5       29.95S HX  80
6HR MIN TEMP:  78; 6HR MAX TEMP:  82;

WATERTOWN      CLEAR     75  65  70 SW5       29.95R
6HR MIN TEMP:  75; 6HR MAX TEMP:  79;

MONROE         CLEAR     77  61  57 S5        29.96S
JANESVILLE     CLEAR     79  61  53 SW3       29.95S HX  80
$$

WIZ051-052-058>065-066-070>072-200100-
SOUTHEAST WISCONSIN

CITY           SKY/WX    TMP DP  RH WIND       PRES   REMARKS
MILWAUKEE      PTCLDY    80  59  48 SW7       29.94S HX  81
6HR MIN TEMP:  80; 6HR MAX TEMP:  83;

WAUKESHA       CLEAR     75  61  60 SW7       29.96S
MILWAUKEE/TIMM CLEAR     77  55  47 SW7       29.95S
RACINE         CLEAR     74  63  68 S9        29.96S
6HR MIN TEMP:  74; 6HR MAX TEMP:  81;

KENOSHA        CLEAR     77  62  59 CALM      29.95S
6HR MIN TEMP:  77; 6HR MAX TEMP:  81;

FOND DU LAC    CLEAR     77  60  55 SW5       29.93S
6HR MIN TEMP:  77; 6HR MAX TEMP:  81;

SHEBOYGAN      CLEAR     76  65  68 SW3       29.92S
6HR MIN TEMP:  76; 6HR MAX TEMP:  81;

WEST BEND      CLEAR     73  59  60 SW3       29.94S
JUNEAU         CLEAR     75  63  66 SW5       29.95S
6HR MIN TEMP:  74; 6HR MAX TEMP:  78;

$$

LSZ147-162-200100-
LAKE SUPERIOR

STATION/POSITION TIME  TEMP    WIND        PRES    WAVE
                       AIR SEA DIR/SP/G            HT/PER
                 (UTC) (F)     (DEG/KT/KT) (MB)    (FT/S)
W MID LAKE BUOY  2350   65 60  210/ 10/ 10 1009.8F   1/ 4
DEVILS ISLAND    0000   74     220/ 11/ 13 1009.8F
SAXON HARBOR     2340   76     210/  2/  4 1010.5F
$$

LMZ867-665-643>646-200100-
LAKE MICHIGAN

STATION/POSITION TIME  TEMP    WIND        PRES    WAVE
                       AIR SEA DIR/SP/G            HT/PER
                 (UTC) (F)     (DEG/KT/KT) (MB)    (FT/S)
S GREEN BAY BUOY 0000   75 72  230/  8/ 10 1011.8
N MID LAKE BUOY  2350   69 67  190/ 16/ 17 1011.4F   2/



USA.gov is the U.S. government's official web portal to all federal, state and local government web resources and services.